一网星座-0325星 (ONEWEB-0325 )

导读

ONEWEB-025由英国(GB)于2021年9月14日发射,属于OneWeb低轨卫星互联网星座的组网卫星。OneWeb星座旨在为全球提供宽带互联网接入服务,该卫星入轨后承担覆盖补充,提升星座在特定区域网络容量,服务海上、航空等偏远区域通信需求,助力OneWeb全球星座部署推进。

Basic Information
目录编号:
49194
目录名称:
ONEWEB-0325
国际标识:
2021-083J
轨道中心:
EARTH
卫星名称:
一网星座-0325星
卫星全名:
一网星座-0325星 (ONEWEB-0325 )
卫星状态:
在轨 (已飞行1733 天)
发射日期:
2021-09-14 UTC
国别 :
英国 (GB)
星等 :
--
Orbit Information
数据来源 国际轨道数据 AOE轨道数据
星历时间 2026-06-12T12:57:31+0800
19小时前
查看轨道信息
2026-06-11T17:00:00+0800
1天前
查看轨道信息
半长轴 7567.885km 7567.884km
偏心率 0.0001825 0.0001702
轨道倾角 87.916° 87.916°
近地点辐角 89.692° 94.965°
升交点赤经 336.449° 336.616°
平近点角 270.442° 279.575°
近地点 1188.366km 1188.458km
远地点 1191.13km 1191.036km
周期 109.200分钟 109.200分钟
每日圈数 13.186849 13.18685
Detailed Information
平衡模式:
三轴稳定
覆盖范围:
全球
运营商:
一网卫星公司
运营商所在国:
英国
制造商(研发单位):
一网卫星公司
制造商所在国:
英国
使用方式:
暂无
Satellite Introduction
OneWeb卫星网络由648颗重约125公斤的微型卫星组成,运行在1200公里的轨道上。 每颗卫星都能够提供至少每秒8千兆位的吞吐量,以使用其高吞吐量的Ku频段有效载荷为家庭和移动平台提供互联网接入。该卫星仍在工作。
2D Orbit Map
3D Orbit Map
Orbit Altitude Analysis Chart
Orbit Inclination Analysis Chart
Orbit Comprehensive Analysis Chart
View Comprehensive Chart